User: anonymous   Login
Location: Zagreb
(45.8000°N, 16.0000°E)
Time: 22:01:52
(UTC+01:00)
Language:

Altair - Orbit

View from above orbital plane
View from above orbital plane
View from above satellite
View from above satellite

Ground track
Ground track

The orbit data is extracted from the following two-line orbital elements,

1 00050U 60009B   22334.41619303 -.00000028  00000-0  55321-3 0  9991
2 00050  47.2294 220.4882 0113435 115.7219 245.5331 12.20124693779617
Epoch (UTC): 30 November 2022 09:59:19
Eccentricity: 0.0113435
inclination: 47.2294°
perigee height: 1501 km
apogee height: 1682 km
right ascension of ascending node: 220.4882°
argument of perigee: 115.7219°
revolutions per day: 12.20124693
mean anomaly at epoch: 245.5331°
orbit number at epoch: 77961

The dashed part of the orbit path shows where the satellite is in the earth's shadow,  

DLR